Location: Casteau
(50.5142°N, 4.0161°E)
Time: 20:05:38
(UTC+00:00)

Tiros 1 - Pass Details

Date: 02 August 2021
Orbit: 630 x 663 km, 48.4° (Epoch: 28 September)

Event Time Altitude Azimuth Distance (km) Brightness Sun altitude
Rises 18:28:19 0° 242° (WSW) 2,981 11.3 7.6°
Reaches altitude 10° 18:30:43 10° 237° (WSW) 2,067 10.4 7.2°
Maximum altitude 18:35:20 51° 162° (SSE) 819 7.6 6.6°
Drops below altitude 10° 18:39:56 10° 87° (E) 2,053 9.2 5.9°
Sets 18:42:18 0° 83° (E) 2,959 10.0 5.5°
